Reflectivity
10 -4 -3 -7 -16 -10 -19 -3 -20 4 -5 -20 -20 -12 2 -7 15 -2 -11 -13 -7 11 -15 -20 -7 -7 -20 -20 -5 -7 -17 -20 -20 2 4 -1 1 -3 -20 -20 -20 -20 -20 -12 -20 -9 -20 -20 -20 -20 -20 -20 -20 -20
7 5 -20 -2 6 8 -13 -20 -20 -20 -20 -20 -20 -20 -20 -20 -20 -20 -20 -20 -20 -6 -20 -20 -20 -20 -19 -12 -2 2 -6 -20 -20 -16 11 -19 -20 -20 -18 10 -20 -20 -20 -20 -20 -20 -20 -20 -20 -20 -20 -20 -20 -20
5 -4 5 -20 11 -3 3 4 -2 -20 -20 -20 -20 -20 -20 -20 -20 -20 -20 -20 -16 7 -20 -13 -20 -20 -20 -20 -20 7 -17 2 -20 -20 -15 4 -15 -20 -20 -15 -20 -20 -20 -20 -20 -20 -20 -20 -20 -20 -20 -20 -20 -20
9 -2 -20 -8 10 -17 6 -4 -20 -20 -20 -20 -20 -20 -20 -20 -20 -20 -20 -20 -11 11 -10 -20 -20 -20 -20 -20 -20 -20 -20 -20 -20 -18 12 9 8 -20 -20 -20 -20 -20 -20 -20 -20 -20 -20 -20 -20 -20 -20 -20 -20 -20
-0 -8 -3 7 11 -2 -20 -20 -20 -20 -20 -20 -20 -20 -20 -20 -20 -20 -20 -20 -20 -11 -20 -20 -20 -20 -20 -20 -20 -20 -20 -12 5 6 9 14 12 11 2 -9 1 -20 -20 -20 -20 -20 -20 -20 -20 -20 -20 -20 -20 -20
-6 -1 -6 6 11 -20 -20 -20 -20 -20 -20 -20 -20 -20 -20 -20 -20 -18 -20 -20 -20 -20 6 -9 -20 -20 -20 -20 -20 -20 -20 -20 -17 -16 8 5 -19 5 8 -20 -20 -20 -17 -20 -20 -20 -20 -20 -20 -20 -20 -20 -20 -20
3 4 10 22 -15 -7 -20 -20 -20 -20 -20 -20 -20 -20 -20 -13 6 -9 -20 -20 -20 -20 -13 -20 -20 -20 -20 -20 -20 -20 -20 -16 4 8 8 1 -15 12 8 3 -20 -20 -20 -20 -20 -20 -20 -20 -20 -20 -20 -20 -20 -20
-6 -2 -3 19 14 -18 -20 -20 -20 -20 -20 -20 -20 -20 -20 -20 -11 -8 -20 9 1 12 7 -9 -20 -20 -20 -20 -20 -20 -20 -15 5 -1 -2 1 -8 6 2 -20 -20 -20 -20 -20 -20 -20 -20 -20 -20 -20 -20 -20 -20 -20
-2 4 22 15 -13 -20 -20 -20 -20 -20 -20 -20 -20 -20 -20 -20 -20 -20 -20 -6 6 -12 9 -7 -16 -20 -20 -20 -20 -20 -20 -11 -20 -0 0 -20 -20 -7 -20 -20 -20 -20 -20 -20 -20 -20 -20 -20 -20 -20 -20 -20 -20 -20
-12 18 16 -10 -20 -20 -20 -20 -20 -20 -20 -20 -20 -20 -20 -20 -11 -20 -20 -20 6 20 18 6 -20 -20 -20 -20 -11 9 14 8 9 -5 -20 3 -19 -20 -20 -20 -20 -20 -20 -20 -20 -20 -20 -20 -20 -20 -20 -20 -20 -20
19 14 -20 -20 -20 -20 -20 -20 -20 -20 -20 -20 -20 -20 -20 -15 -20 -19 -20 -20 -14 -20 -19 -20 -14 3 -20 -6 1 -10 1 -15 12 -20 2 -8 -20 -20 -20 -20 -20 -20 -20 -20 -20 -20 -20 -20 -20 -20 -20 -20 -20 -20
-0 -20 -20 -20 -20 -20 -20 -20 -20 -20 -20 -20 -20 -20 -6 -19 -20 -20 -20 -20 -20 -0 13 -7 -20 -20 -0 -1 6 3 -1 -13 -12 -13 4 -20 -20 -20 -20 -20 -20 -20 -20 -20 -20 -20 -20 -20 -20 -20 -20 -20 -20 -20
-20 -20 -20 -20 -20 -20 -20 -20 -20 -20 -20 -20 -20 -20 -20 -20 -20 -20 -20 -19 -16 -19 -3 -20 -9 -20 -1 12 9 -0 2 -20 -20 -20 -20 -20 -3 -15 -1 -19 -20 -20 -20 -20 -20 -20 -20 -20 -20 -20 -20 -20 -20 -20
-20 -20 -20 -20 -20 -20 -20 -20 -20 -20 -20 -20 -20 -20 -20 -20 -20 -20 -20 -20 -15 -20 -20 -20 -20 -20 -15 13 -18 7 -20 -12 14 12 -4 -6 -10 -20 -20 -20 -20 -20 -18 -1 -8 -18 -20 -20 -20 -20 -20 -20 -20 -20
-0 -20 -20 -20 -20 -20 -20 -11 -20 -20 -20 -20 -20 -20 -20 -20 -20 -20 -20 -20 -20 -20 -20 -14 -7 1 -9 -7 13 2 10 6 -6 -19 -9 -11 -20 -20 -20 -20 -2 -13 -13 -5 11 6 -3 -20 -20 -20 -20 -20 -20 -20
-19 -20 -20 -20 -20 1 8 -20 -20 -20 -20 -20 -20 -20 -20 -20 -20 -20 -20 -20 -20 -20 -20 -10 -20 -20 -20 4 14 13 10 -5 -9 -18 -20 -11 -20 -12 0 -12 -18 -9 8 14 14 13 10 16 17 7 -9 -20 -20 -19
-20 -20 -20 -17 1 16 -20 -20 -20 -20 -20 -20 -20 -20 -20 -20 -20 -20 -20 -20 -20 -20 -20 -11 -16 -20 -17 4 -20 -15 -2 -18 -4 -19 -1 -11 -8 -10 -8 -13 -18 -18 -18 -12 -2 15 19 16 18 18 -0 9 3 16
-20 -20 -17 4 -20 -20 -20 -20 -20 -20 -20 -20 -20 -20 -20 -20 -20 -20 -20 -20 -0 -1 3 -11 -20 -20 -20 -20 0 -2 -17 -20 -20 -6 10 7 -10 -9 -9 2 -1 5 -2 -5 11 16 15 13 9 10 5 14 18 19
-20 -20 5 -20 -20 -20 -20 -20 -20 -20 -20 -20 -20 -20 -20 -20 -20 -20 -20 -20 -13 0 -13 -20 -20 -20 -20 -20 -18 -20 -5 -13 -20 5 8 1 -18 0 9 10 10 10 5 11 6 14 15 17 18 16 20 18 19 20
-4 -7 10 -7 -20 -20 -20 -20 -20 -20 -20 -20 -20 -20 -20 -20 -20 -20 -20 -20 -8 -1 -14 -20 -20 -20 -20 -20 -3 5 -8 1 -9 9 5 -4 -2 0 4 7 7 13 14 7 9 10 11 4 12 16 18 21 19 21
-20 -4 -20 -20 -20 -20 -20 -20 -20 -20 -20 -20 -20 -20 -20 -20 -20 -20 -20 -20 -20 -20 -20 -20 -20 -20 2 2 2 2 7 1 2 11 -14 -20 -20 -17 -7 -4 -1 6 8 10 6 11 10 9 13 13 11 10 9 10
-20 -20 -20 -20 -20 -20 -20 -20 -20 -20 -20 -20 -20 -20 -20 -20 -20 -20 -20 -20 -20 -20 -18 -5 4 5 5 5 6 9 5 -0 1 7 0 -7 -15 -20 -20 -20 -20 -20 -20 -20 -20 -11 -10 -15 -13 -10 -11 -11 -9 -12
-20 -20 -20 -20 -20 -20 -20 -20 -20 -20 -20 -20 -20 -20 -20 -20 -20 -20 -20 -20 -20 -14 -5 -1 -3 1 10 10 9 7 -1 3 -1 -6 -20 -19 -20 -20 -20 -20 -20 -20 -20 -20 -20 -20 -20 -20 -20 -20 -20 -20 -20 -20
-20 -20 -20 -20 -20 -20 -20 -20 -20 -20 -20 -20 -20 -20 -20 -20 -20 -20 -20 -20 -20 -20 -20 -17 -7 -1 0 -0 -2 2 -7 -20 -20 -20 -20 -20 -20 -20 -20 -20 -20 -20 -20 -20 -20 -20 -20 -20 -20 -20 -20 -20 -20 -20
-20 -20 -20 -20 -20 -20 -20 -20 -20 -20 -20 -20 -20 -20 -20 -20 -20 -20 -20 -20 -20 -20 -20 -20 -19 -6 -0 2 4 2 -13 -20 -20 -20 -20 -20 -20 -20 -20 -20 -20 -20 -20 -20 -20 -20 -20 -20 -20 -20 -20 -20 -20 -20
-20 -20 -20 -20 -20 -20 -20 -20 -20 -20 -20 -20 -20 -20 -20 -20 -20 -20 -20 -20 -20 -20 -20 -20 -20 -20 -15 -13 -15 -16 -20 -20 -20 -20 -20 -20 -20 -20 -20 -20 -20 -20 -20 -20 -20 -20 -20 -20 -20 -20 -20 -20 -20 -20
-20 -20 -20 -20 -20 -20 -20 -20 -20 -20 -20 -20 -20 -20 -20 -20 -20 -20 -20 -20 -20 -20 -20 -20 -20 -20 -20 -20 -20 -20 -20 -20 -20 -20 -20 -20 -20 -20 -20 -20 -20 -20 -20 -20 -20 -20 -20 -20 -20 -20 -20 -20 -20 -20
-20 -20 -20 -20 -20 -20 -20 -20 -20 -20 -20 -20 -20 -20 -20 -20 -20 -20 -20 -20 -20 -20 -20 -20 -20 -20 -20 -20 -20 -20 -20 -20 -20 -20 -20 -20 -20 -20 -20 -20 -20 -5 -20 -20 -20 -20 -20 -20 -20 -20 -20 -20 -20 -20
-20 -20 -20 -20 -20 -20 -20 -20 -20 -20 -20 -20 -20 -20 -20 -20 -20 -20 -20 -20 -20 -20 -20 -20 -20 -20 -20 -20 -20 -20 -20 -20 -20 -20 -20 -20 -20 -20 -20 -20 -20 -20 -20 -20 -20 -20 -18 -20 -20 -20 -20 -20 -20 -20
-20 -20 -20 -20 -20 -20 -20 -20 -20 -20 -20 -20 -20 -20 -20 -20 -20 -20 -20 -20 -20 -20 -20 -20 -20 -20 -20 -20 -20 -20 -20 -20 -20 -20 -20 -20 -20 -20 -20 -20 -20 -20 -20 -20 -20 -20 -20 -20 -20 -20 -20 -20 -20 -20
-20 -20 -20 -20 -20 -20 -20 -20 -20 -20 -20 -20 -20 -20 -20 -20 -20 -20 -20 -20 -20 -20 -20 -20 -20 -20 -20 -20 -20 -20 -20 -20 -20 -20 -20 -20 -20 -20 -20 -20 -20 -20 -20 -20 -20 -20 -20 -20 -20 -20 -20 -20 -20 -20
-20 -20 -20 -20 -20 -20 -20 -20 -20 -20 -20 -20 -20 -20 -20 -20 -20 -20 -20 -20 -20 -20 -20 -20 -20 -20 -20 -20 -20 -20 -20 -20 -20 -20 -19 -20 -20 -20 -20 -20 -20 -20 -20 -20 -20 -20 -20 -20 -20 -20 -20 -20 -20 -20
-20 -20 -20 -20 -20 -20 -20 -20 -20 -20 -20 -20 -20 -20 -20 -20 -20 -20 -20 -20 -20 -20 -20 -20 -20 -20 -20 -20 -20 -20 -20 -20 -20 -20 -2 -1 -4 -6 -20 -20 -20 -20 -20 -20 -20 -20 -20 -20 -20 -20 -20 -20 -20 -20
Wind_Speed
21 19 17 14 15 13 12 10 11 13 12 12 10 9 9 10 8 2 2 1 1 2 5 9 7 6 5 5 7 2 7 3 3 5 4 5 7 4 5 4 4 7 8 6 6 7 11 2 2 1 6 8 10 10
20 19 16 14 13 16 14 13 13 13 12 10 9 7 6 6 7 4 1 1 2 2 5 6 9 13 17 18 9 5 7 5 2 3 2 4 4 3 5 4 2 6 5 3 9 6 2 3 3 4 4 10 10 9
19 18 16 13 16 17 15 14 13 12 11 9 8 7 7 7 6 3 1 2 1 3 6 4 9 12 12 16 13 9 8 9 9 8 6 4 9 5 6 7 4 4 2 5 4 5 4 11 11 4 3 11 10 8
18 17 17 14 17 18 16 15 13 11 10 9 7 6 4 3 3 2 0 1 1 3 5 5 2 7 7 7 12 15 17 10 7 4 6 5 8 6 9 12 13 10 9 8 13 15 21 14 11 5 6 9 10 9
16 15 14 15 19 18 16 14 13 11 9 7 4 3 2 0 1 1 2 3 4 3 4 6 11 23 17 13 15 15 15 14 8 9 8 9 4 7 11 15 13 13 18 14 18 20 19 19 15 14 10 15 16 12
15 16 14 16 20 17 15 13 12 10 8 5 3 2 2 2 1 1 3 0 1 4 3 4 4 7 10 10 12 14 10 9 7 5 6 6 15 9 11 15 16 19 25 25 24 24 22 21 21 22 22 20 15 16
15 15 14 18 19 17 15 13 10 8 6 4 4 4 4 6 2 2 2 1 4 2 1 5 6 3 3 1 1 3 8 6 6 5 9 11 11 9 10 23 21 20 19 17 20 21 24 24 18 18 15 16 9 8
15 15 15 20 19 16 14 12 9 6 3 2 5 6 8 9 6 5 4 9 6 1 2 3 5 7 2 3 2 2 3 5 6 6 4 7 7 7 11 19 22 22 22 25 27 23 24 25 19 18 11 11 14 15
15 16 20 21 18 16 13 10 7 4 1 3 5 6 3 2 2 1 5 5 1 4 2 3 2 4 4 2 2 2 3 5 5 6 5 6 7 12 20 16 17 14 12 18 18 20 22 23 25 23 20 17 14 16
16 20 22 20 17 15 12 9 6 3 4 5 5 2 1 1 5 6 2 1 3 3 3 5 3 4 2 5 4 3 3 4 4 7 4 6 10 17 14 14 13 14 12 11 13 19 15 18 19 21 20 17 14 15
23 22 20 18 16 14 11 8 5 9 7 3 2 0 1 5 1 2 1 2 3 3 3 3 3 6 4 6 5 4 3 4 5 3 5 4 4 5 13 15 15 16 15 14 16 21 17 18 17 17 16 15 11 13
22 21 19 17 15 12 10 7 6 3 3 4 2 3 0 1 0 2 2 2 4 2 1 2 4 6 5 5 5 4 4 3 7 4 4 5 4 13 15 19 20 18 18 19 17 20 19 18 16 16 16 12 10 10
21 19 17 15 13 11 8 6 7 7 6 3 4 3 1 2 1 4 3 2 1 1 1 5 7 4 3 4 4 4 7 8 2 5 4 3 9 14 15 15 18 19 18 19 20 18 19 19 15 16 14 11 11 8
20 18 16 14 12 9 10 9 8 6 4 2 3 3 3 3 4 4 2 1 1 3 4 6 5 4 3 6 5 6 7 4 5 2 5 6 15 16 15 14 16 18 18 17 16 14 12 10 7 3 3 3 5 5
19 17 15 12 11 7 11 9 8 3 2 2 3 4 5 3 2 1 1 2 2 2 2 4 5 4 4 6 5 6 5 1 4 4 5 9 14 14 14 15 15 15 14 13 12 10 8 9 10 11 10 9 10 9
18 13 4 11 8 12 14 8 4 1 2 2 2 2 2 1 2 2 2 2 1 1 3 3 4 4 6 5 4 5 5 4 4 4 6 8 12 12 12 12 13 12 12 11 11 11 12 12 11 12 14 14 13 13
11 2 10 14 13 16 8 3 2 2 2 4 3 3 4 4 5 2 3 2 2 2 3 3 5 6 5 3 2 3 3 4 5 5 5 8 10 12 12 12 13 13 13 13 13 13 13 13 13 15 17 14 15 14
3 7 17 18 8 5 3 4 3 3 6 4 3 2 3 2 2 2 1 2 2 3 2 2 4 3 3 3 2 4 1 1 2 4 5 7 9 11 10 12 13 13 13 13 14 14 14 14 15 12 13 13 14 14
6 5 10 14 6 5 3 2 1 4 6 1 3 2 2 1 1 1 3 4 5 4 4 2 3 1 2 2 4 6 6 2 2 3 4 7 9 10 11 11 11 13 14 14 13 11 11 15 12 10 10 10 11 10
12 10 10 11 5 4 3 1 1 2 2 1 2 1 2 1 1 0 3 4 3 2 2 2 2 2 3 5 5 7 7 2 1 1 3 6 7 9 11 10 9 10 10 11 12 17 10 11 11 11 11 12 10 10
8 5 8 5 4 5 3 2 1 0 2 1 1 2 1 2 0 1 2 3 2 2 1 1 3 4 5 4 4 5 4 4 5 3 3 4 6 7 8 8 9 8 8 9 9 11 14 10 8 8 9 9 9 9
2 7 4 4 5 4 4 2 0 1 1 1 1 2 1 1 1 2 1 3 2 2 2 3 4 3 4 6 6 6 5 6 7 6 10 7 7 8 8 8 8 8 8 8 8 8 8 7 7 8 8 8 10 8
8 4 5 4 5 4 2 2 2 4 1 2 1 2 2 1 1 3 2 2 1 2 3 2 3 4 4 4 5 8 9 7 6 6 6 6 6 6 6 7 7 7 7 8 6 6 7 11 10 8 7 8 7 7
8 6 5 3 3 2 2 4 2 2 2 3 2 1 2 2 4 1 2 1 2 2 4 6 4 2 2 5 6 6 6 5 6 7 6 5 6 6 5 6 6 6 6 4 5 6 7 7 9 7 7 7 7 6
7 3 5 2 2 4 4 4 4 3 1 1 1 2 2 3 2 2 1 2 2 3 4 4 4 4 3 3 3 5 7 5 5 6 6 4 3 2 3 4 5 7 6 6 8 7 7 7 7 7 7 6 6 6
3 3 3 3 2 2 3 1 1 3 1 1 3 2 2 2 3 1 1 3 3 3 3 4 4 2 3 4 3 3 4 4 3 5 5 5 5 3 3 4 4 5 6 5 6 6 7 6 6 7 7 8 10 6
3 3 1 1 2 3 3 2 2 2 2 2 1 2 3 3 2 1 1 2 2 3 3 3 3 3 3 4 4 4 4 5 5 5 3 4 4 4 4 4 4 4 5 6 5 4 5 6 6 5 4 3 3 3
3 2 5 2 3 1 4 2 2 2 2 2 2 1 4 5 3 1 1 1 1 2 2 3 3 3 3 3 3 2 2 2 1 2 2 1 0 2 4 3 4 10 6 6 6 3 3 4 4 4 3 3 3 3
2 1 4 3 2 2 2 3 3 1 1 2 3 2 2 0 1 1 1 1 1 1 2 2 3 2 3 3 4 3 2 1 3 5 5 4 3 3 5 4 4 4 4 5 10 9 7 4 3 3 3 3 3 2
1 1 4 2 3 1 3 2 2 2 1 2 2 2 2 1 1 2 2 1 1 0 0 0 0 1 2 2 3 5 4 4 3 2 3 4 4 5 4 5 5 4 4 4 5 5 7 5 5 4 4 3 3 3
1 2 4 2 2 2 2 1 2 0 2 2 1 3 2 2 1 1 2 1 1 2 2 2 2 1 3 2 2 3 3 3 4 4 3 3 3 3 3 3 3 3 3 3 3 4 4 4 4 4 5 6 7 6
2 2 4 3 1 1 1 1 1 2 1 2 1 1 1 1 1 1 2 1 1 1 2 3 3 2 2 1 1 1 1 2 4 5 4 1 1 2 3 3 2 3 3 3 3 4 4 5 4 4 4 5 5 5
2 1 2 3 3 2 2 3 3 2 3 2 1 1 1 1 2 1 0 2 1 0 1 2 2 3 3 3 2 1 2 2 6 11 11 11 12 9 4 2 2 3 4 4 4 5 5 3 3 3 4 5 6 6
Wind_Direction
156 164 169 172 169 162 151 135 138 139 129 123 117 99 82 84 122 117 101 173 253 247 238 224 216 214 230 244 262 312 311 172 240 233 253 245 255 238 273 258 200 191 177 188 201 223 257 351 240 308 354 337 327 334
161 163 166 163 177 161 150 140 133 126 118 114 105 103 99 102 129 105 161 205 148 215 268 237 238 250 248 250 266 232 258 272 295 298 35 316 296 272 317 272 268 240 240 219 215 222 31 358 15 100 14 352 353 332
156 161 164 164 165 158 155 146 137 135 125 124 123 112 97 87 75 81 203 132 145 278 275 261 250 262 244 239 229 242 245 235 238 252 288 271 249 272 263 253 291 243 347 257 280 245 286 316 305 213 351 355 341 337
157 159 167 168 162 155 155 155 140 136 132 126 118 104 84 73 49 83 242 132 169 289 275 282 329 270 238 240 237 233 251 262 287 273 256 249 264 242 263 266 265 266 318 293 272 285 297 282 248 226 311 334 337 333
156 159 163 172 165 159 156 145 144 142 133 124 124 107 109 66 317 280 233 215 198 223 279 286 308 269 267 262 239 232 229 241 250 253 240 249 251 268 257 260 249 249 254 257 261 262 264 270 280 284 292 302 311 311
159 173 179 180 161 158 146 151 147 144 136 150 173 203 243 270 347 8 330 132 212 184 264 295 295 285 287 261 248 225 220 221 226 220 234 238 235 243 263 258 264 239 230 245 258 264 269 277 280 283 281 287 290 268
166 168 174 170 158 150 150 149 147 147 160 196 228 252 266 262 181 192 204 140 147 153 336 299 281 294 303 261 193 197 193 212 222 235 226 241 245 239 260 264 254 259 261 254 256 265 267 262 266 274 272 275 266 271
171 174 169 162 153 152 150 148 152 160 177 250 274 290 295 300 306 261 260 209 172 246 236 258 276 312 1 312 304 161 182 204 220 236 236 232 242 219 251 254 261 259 257 252 255 256 257 267 268 270 259 252 268 275
174 174 164 154 150 149 148 151 143 153 220 301 332 359 56 65 136 244 265 321 193 213 240 237 245 289 350 313 303 247 217 235 227 224 224 213 220 225 239 264 281 302 292 271 262 257 252 253 260 259 259 261 258 265
181 161 151 146 148 148 150 145 147 133 86 64 47 53 355 202 341 310 65 64 189 174 222 241 206 263 318 294 289 283 237 245 254 217 176 218 245 260 291 338 330 323 314 309 285 269 261 253 253 256 255 255 250 251
149 144 145 147 147 147 145 142 138 116 66 43 55 168 250 305 300 41 80 202 173 242 218 247 237 259 233 231 220 234 272 265 258 193 216 236 252 3 334 322 317 313 306 297 279 278 281 274 266 255 252 247 238 239
143 144 148 148 147 146 148 157 143 111 160 184 153 92 317 55 116 167 220 230 221 241 313 322 316 276 268 209 212 204 254 267 256 145 228 238 48 340 330 323 318 316 311 302 291 284 281 271 264 254 251 243 225 232
147 147 148 148 146 146 146 144 139 134 109 53 43 55 40 267 220 190 215 211 271 360 286 327 314 277 288 203 225 235 226 228 167 226 230 48 342 335 330 324 318 317 315 307 301 291 282 273 255 244 238 232 231 227
149 148 148 148 148 144 145 142 145 126 85 91 100 338 166 243 240 198 165 224 255 236 312 307 273 253 252 226 228 246 223 246 244 279 3 356 341 330 327 328 326 324 324 321 316 301 291 269 238 199 210 194 186 178
149 148 150 152 153 148 148 147 121 64 100 125 109 222 217 231 269 252 281 251 258 278 304 294 263 246 257 268 219 241 240 48 27 359 322 332 329 330 334 336 335 337 335 334 339 354 25 62 74 70 67 84 94 104
144 143 143 155 156 141 131 105 48 72 73 106 216 257 201 264 274 247 219 244 230 288 282 227 255 267 252 256 326 17 328 27 353 332 326 328 333 337 341 346 347 347 353 1 14 27 40 44 63 74 68 65 67 73
117 125 172 160 137 133 99 91 77 121 194 221 247 250 238 267 259 225 196 229 158 273 240 244 240 234 292 297 21 14 356 336 324 331 338 344 339 342 348 355 2 5 9 17 25 34 48 56 63 65 68 64 69 66
95 155 138 136 123 93 45 36 91 178 232 215 229 221 198 226 230 242 263 224 245 221 222 252 311 271 296 320 44 0 326 273 18 353 355 352 359 358 356 1 5 12 20 22 29 37 40 46 56 57 61 65 67 62
145 136 145 143 107 96 99 27 69 213 225 236 248 240 229 230 207 261 290 282 250 237 281 299 274 278 317 6 345 318 331 353 14 7 3 8 10 8 3 5 11 16 20 24 30 34 35 38 46 48 53 58 63 59
134 138 134 103 72 90 62 328 355 138 236 235 287 248 272 238 1 358 349 340 348 93 74 11 334 341 299 308 299 294 288 327 295 3 26 24 10 15 19 13 12 11 19 19 30 37 33 38 31 35 48 54 58 52
71 99 56 64 47 61 104 132 28 349 288 264 340 305 278 340 106 37 14 352 60 26 0 4 310 311 308 313 323 316 2 41 52 28 24 42 18 25 23 20 25 27 27 23 27 27 34 31 26 34 49 52 48 54
107 100 82 19 76 22 77 340 122 353 226 275 343 351 22 66 22 46 316 59 58 0 332 312 332 338 359 9 7 7 21 51 53 55 49 46 37 29 22 14 19 31 33 29 27 32 31 33 30 33 42 44 51 63
105 63 50 46 69 51 245 10 75 2 100 300 18 49 1 340 288 308 85 84 90 9 330 318 332 41 23 15 31 37 35 53 64 59 58 63 53 43 41 32 27 32 37 29 24 34 34 37 35 43 43 47 53 56
47 56 73 69 65 224 6 21 15 30 38 29 40 7 321 299 315 78 92 76 64 15 13 5 10 46 45 34 40 32 17 45 70 59 36 62 63 47 41 36 31 31 23 13 27 32 30 28 33 34 38 47 45 49
81 338 83 355 337 61 36 12 350 50 131 313 50 336 312 337 68 60 75 64 14 18 10 1 36 33 46 56 50 49 29 34 58 69 25 30 69 65 48 48 45 35 14 25 24 23 25 20 24 25 28 44 44 34
98 297 101 175 277 125 179 125 187 195 134 334 239 290 3 81 66 185 36 359 356 3 2 5 351 7 54 27 32 34 13 359 52 72 37 23 33 47 27 27 17 27 15 10 5 6 10 11 15 14 24 19 30 38
128 246 285 339 100 113 78 55 59 115 121 187 270 32 63 94 229 249 10 23 341 13 345 344 344 26 73 73 68 53 43 43 62 86 86 55 47 33 29 15 4 332 349 348 344 353 346 345 348 1 8 14 22 15
158 170 154 232 73 34 130 85 123 167 213 208 104 76 154 180 189 341 355 24 57 45 37 32 26 34 66 54 23 13 30 11 321 294 273 268 273 16 19 6 337 355 357 331 337 346 319 305 320 344 357 356 356 8
85 100 97 51 39 46 148 154 188 219 65 120 136 176 204 103 283 307 5 65 105 17 55 77 59 62 81 72 52 37 25 42 73 66 51 23 347 345 360 347 341 345 355 353 349 350 329 24 11 26 6 344 342 335
225 49 92 83 103 208 247 177 207 254 129 115 114 91 82 69 27 3 355 10 286 202 65 19 53 114 104 90 81 60 35 36 43 63 52 17 345 319 326 335 339 348 352 353 351 342 2 25 17 19 9 5 6 358
83 73 72 67 138 240 227 282 295 265 69 84 30 112 145 150 130 49 33 30 100 114 112 97 85 59 114 102 90 82 68 24 359 336 252 244 268 293 320 330 342 347 352 359 3 10 5 13 16 6 12 6 351 3
38 98 130 115 179 312 59 69 69 81 16 78 49 80 76 115 92 41 8 18 138 113 148 152 149 160 175 142 171 244 38 306 316 312 305 316 333 296 333 344 3 8 11 18 17 13 12 14 4 2 351 340 329 323
69 73 49 82 47 32 349 71 31 29 28 65 44 111 117 99 166 75 88 60 81 107 157 159 146 141 158 170 184 245 18 320 318 358 18 24 31 29 19 9 12 21 29 22 18 10 5 344 331 331 332 330 327 327